Weather History for Christchurch, New Zealand

Change the Weather History Date:

Thursday, November 10, 2011

  Actual Average Record
Temperature  
Mean Temperature 54 °F -  
Max Temperature 59 °F 63 °F 86 °F (2005)
Min Temperature 48 °F 43 °F 30 °F (2006)
Degree Days  
Heating Degree Days 12    
Growing Degree Days 4 (Base 50)    
Moisture  
Dew Point 46 °F    
Average Humidity 82    
Maximum Humidity 100    
Minimum Humidity 55    
Precipitation  
Precipitation 0.00 in - - ()
Sea Level Pressure  
Sea Level Pressure 30.13 in    
Wind  
Wind Speed 9 mph ()    
Max Wind Speed 16 mph    
Max Gust Speed -    
Visibility 6.2 miles    
Events Rain    
Averages and records for this station are not official NWS values.
T = Trace of Precipitation, MM = Missing Value Source: Averaged Metar Reports

Daily Weather History Graph

Daily Weather History Graph

Search for Another Location

Airport:

Trip Planner

Search our weather history database for the weather conditions in past years. The results will help you decide how hot, cold, wet, or windy it might be!

Date:

Astronomy

Nov. 10, 2011 Rise Set
Actual Time 6:01 AM NZDT 8:26 PM NZDT
Civil Twilight 5:29 AM NZDT 8:58 PM NZDT
Nautical Twilight 4:49 AM NZDT 9:38 PM NZDT
Astronomical Twilight 4:05 AM NZDT 10:23 PM NZDT
Moon 7:58 PM NZDT (11/10) 5:14 AM NZDT (11/10)
Length of Visible Light 15h 29m
Length of Day
14h 24m
Waxing Gibbous, 99% of the Moon is Illuminated
Nov 10
Waxing Gibbous
Nov 11
Full
Nov 19
Last Quarter
Nov 25
New
Dec 2
First Quarter

Hourly Weather History & Observations

Time (NZDT) Temp. Dew Point Humidity Pressure Visibility Wind Dir Wind Speed Gust Speed Precip Events Conditions
12:00 AM 48.2 °F 48.2 °F 100% 30.04 in 6.2 mi South 11.5 mph - N/A Rain Rain
12:30 AM 48.2 °F 48.2 °F 100% 30.04 in 6.2 mi SSW 9.2 mph - N/A Rain Light Rain
1:00 AM 48.2 °F 48.2 °F 100% 30.04 in 6.2 mi SSW 6.9 mph - N/A   Mostly Cloudy
2:00 AM 48.2 °F 48.2 °F 100% 30.04 in 6.2 mi SW 6.9 mph - N/A   Mostly Cloudy
3:00 AM 48.2 °F 48.2 °F 100% 30.04 in 6.2 mi SW 8.1 mph - N/A   Mostly Cloudy
4:00 AM 48.2 °F 48.2 °F 100% 30.06 in 6.2 mi SW 8.1 mph - N/A   Mostly Cloudy
5:00 AM 48.2 °F 48.2 °F 100% 30.06 in 6.2 mi SW 8.1 mph - N/A   Mostly Cloudy
6:00 AM 48.2 °F 48.2 °F 100% 30.09 in 6.2 mi SW 6.9 mph - N/A   Mostly Cloudy
7:00 AM 48.2 °F 44.6 °F 87% 30.12 in 6.2 mi SSW 8.1 mph - N/A   Mostly Cloudy
8:00 AM 50.0 °F 44.6 °F 82% 30.12 in 6.2 mi South 13.8 mph - N/A   Mostly Cloudy
9:00 AM 50.0 °F 42.8 °F 76% 30.15 in 6.2 mi SSW 15.0 mph - N/A   Scattered Clouds
10:00 AM 51.8 °F 44.6 °F 76% 30.15 in 6.2 mi SSW 13.8 mph - N/A   Mostly Cloudy
11:00 AM 53.6 °F 42.8 °F 67% 30.18 in 6.2 mi SSW 13.8 mph - N/A   Mostly Cloudy
12:00 PM 53.6 °F 44.6 °F 72% 30.21 in 6.2 mi South 12.7 mph - N/A   Mostly Cloudy
1:00 PM 55.4 °F 44.6 °F 67% 30.21 in 6.2 mi SSW 13.8 mph - N/A   Mostly Cloudy
2:00 PM 57.2 °F 44.6 °F 63% 30.18 in 6.2 mi South 11.5 mph - N/A   Mostly Cloudy
3:00 PM 59.0 °F 46.4 °F 63% 30.18 in 6.2 mi SW 6.9 mph - N/A   Scattered Clouds
4:00 PM 59.0 °F 42.8 °F 55% 30.15 in 6.2 mi South 4.6 mph - N/A   Scattered Clouds
5:00 PM 57.2 °F 46.4 °F 67% 30.15 in 6.2 mi NE 13.8 mph - N/A   Scattered Clouds
6:00 PM 55.4 °F 46.4 °F 72% 30.18 in 6.2 mi ENE 12.7 mph - N/A   Partly Cloudy
7:00 PM 53.6 °F 44.6 °F 72% 30.18 in 6.2 mi ENE 13.8 mph - N/A   Partly Cloudy
8:00 PM 50.0 °F 44.6 °F 82% 30.18 in 6.2 mi ENE 16.1 mph - N/A   Partly Cloudy
9:00 PM 48.2 °F 42.8 °F 82% 30.18 in - ENE 12.7 mph - N/A   Clear
10:00 PM 48.2 °F 44.6 °F 87% 30.18 in - ENE 12.7 mph - N/A   Clear
11:00 PM 48.2 °F 44.6 °F 87% 30.15 in 6.2 mi ENE 15.0 mph - N/A   Partly Cloudy